Time,TemperatureF,DewpointF,PressureIn,WindDirection,WindDirectionDegrees,WindSpeedMPH,WindSpeedGustMPH,Humidity,HourlyPrecipIn,Conditions,Clouds,dailyrainin,SoftwareType,DateUTC
2015-09-05 00:03:00,52.8,49.6,29.85,ESE,105,0.0,0.0,89,0.00,,,0.00,LWC V2.00 B2112,2015-09-05 07:03:00,
2015-09-05 00:08:00,52.8,49.9,29.85,South,169,0.0,1.0,90,0.00,,,0.00,LWC V2.00 B2112,2015-09-05 07:08:00,
2015-09-05 00:13:00,52.9,50.0,29.85,ESE,112,0.0,0.0,90,0.00,,,0.00,LWC V2.00 B2112,2015-09-05 07:13:00,
2015-09-05 00:18:00,52.9,49.7,29.85,South,188,0.0,0.0,89,0.00,,,0.00,LWC V2.00 B2112,2015-09-05 07:18:00,
2015-09-05 00:33:00,52.9,49.7,29.85,ENE,77,0.0,0.0,89,0.00,,,0.00,LWC V2.00 B2112,2015-09-05 07:33:00,
2015-09-05 00:38:00,52.9,49.7,29.85,ENE,77,0.0,0.0,89,0.00,,,0.00,LWC V2.00 B2112,2015-09-05 07:38:00,
2015-09-05 00:43:00,52.9,49.7,29.84,ENE,77,0.0,0.0,89,0.00,,,0.00,LWC V2.00 B2112,2015-09-05 07:43:00,
2015-09-05 00:48:00,52.8,49.6,29.85,ENE,77,0.0,0.0,89,0.00,,,0.00,LWC V2.00 B2112,2015-09-05 07:48:00,
2015-09-05 00:53:00,52.6,49.1,29.85,ENE,77,0.0,0.0,88,0.00,,,0.00,LWC V2.00 B2112,2015-09-05 07:53:00,
2015-09-05 00:58:00,52.3,49.2,29.85,ENE,77,0.0,0.0,89,0.00,,,0.00,LWC V2.00 B2112,2015-09-05 07:58:00,
2015-09-05 01:03:00,51.9,48.8,29.85,ENE,77,0.0,0.0,89,0.00,,,0.00,LWC V2.00 B2112,2015-09-05 08:03:00,
2015-09-05 01:08:00,51.7,48.6,29.85,East,79,0.0,0.0,89,0.00,,,0.00,LWC V2.00 B2112,2015-09-05 08:08:00,
2015-09-05 01:13:00,51.6,48.5,29.85,East,79,0.0,0.0,89,0.00,,,0.00,LWC V2.00 B2112,2015-09-05 08:13:00,
2015-09-05 01:18:00,51.5,48.7,29.85,East,79,0.0,0.0,90,0.00,,,0.00,LWC V2.00 B2112,2015-09-05 08:18:00,
2015-09-05 01:23:00,51.5,48.7,29.85,South,177,0.0,0.0,90,0.00,,,0.00,LWC V2.00 B2112,2015-09-05 08:23:00,
2015-09-05 01:28:00,51.6,48.8,29.85,South,177,0.0,0.0,90,0.00,,,0.00,LWC V2.00 B2112,2015-09-05 08:28:00,
2015-09-05 01:33:00,51.7,48.9,29.85,South,184,0.0,0.0,90,0.00,,,0.00,LWC V2.00 B2112,2015-09-05 08:33:00,
2015-09-05 01:43:00,51.4,48.6,29.85,NNE,32,0.0,1.0,90,0.00,,,0.00,LWC V2.00 B2112,2015-09-05 08:43:00,
2015-09-05 01:48:00,51.4,48.6,29.85,SSW,210,0.0,0.0,90,0.00,,,0.00,LWC V2.00 B2112,2015-09-05 08:48:00,
2015-09-05 01:53:00,51.4,48.6,29.85,SSW,210,0.0,0.0,90,0.00,,,0.00,LWC V2.00 B2112,2015-09-05 08:53:00,
2015-09-05 01:58:00,51.3,48.2,29.85,SSW,210,0.0,0.0,89,0.00,,,0.00,LWC V2.00 B2112,2015-09-05 08:58:00,
2015-09-05 02:03:00,51.2,48.1,29.85,SSW,210,0.0,0.0,89,0.00,,,0.00,LWC V2.00 B2112,2015-09-05 09:03:00,
2015-09-05 02:08:00,50.9,47.8,29.85,SSW,210,0.0,0.0,89,0.00,,,0.00,LWC V2.00 B2112,2015-09-05 09:08:00,
2015-09-05 02:13:00,50.7,47.6,29.86,SSW,210,0.0,0.0,89,0.00,,,0.00,LWC V2.00 B2112,2015-09-05 09:13:00,
2015-09-05 02:18:00,50.3,47.2,29.86,SSW,210,0.0,0.0,89,0.00,,,0.00,LWC V2.00 B2112,2015-09-05 09:18:00,
2015-09-05 02:23:00,50.0,46.9,29.86,SSW,210,0.0,0.0,89,0.00,,,0.00,LWC V2.00 B2112,2015-09-05 09:23:00,
2015-09-05 02:28:00,49.7,46.6,29.86,SSW,210,0.0,0.0,89,0.00,,,0.00,LWC V2.00 B2112,2015-09-05 09:28:00,
2015-09-05 02:33:00,49.3,46.5,29.86,SSW,209,0.0,0.0,90,0.00,,,0.00,LWC V2.00 B2112,2015-09-05 09:33:00,
2015-09-05 02:38:00,49.0,46.2,29.86,SSW,210,0.0,0.0,90,0.00,,,0.00,LWC V2.00 B2112,2015-09-05 09:38:00,
2015-09-05 02:43:00,48.7,45.9,29.86,SSW,210,0.0,0.0,90,0.00,,,0.00,LWC V2.00 B2112,2015-09-05 09:43:00,
2015-09-05 02:53:00,48.1,45.3,29.86,SSW,210,0.0,0.0,90,0.00,,,0.00,LWC V2.00 B2112,2015-09-05 09:53:00,
2015-09-05 02:58:00,48.1,45.6,29.86,SSW,210,0.0,0.0,91,0.00,,,0.00,LWC V2.00 B2112,2015-09-05 09:58:00,
2015-09-05 03:03:00,48.1,45.6,29.87,SSW,210,0.0,0.0,91,0.00,,,0.00,LWC V2.00 B2112,2015-09-05 10:03:00,
2015-09-05 03:08:00,47.9,45.4,29.87,SSW,210,0.0,0.0,91,0.00,,,0.00,LWC V2.00 B2112,2015-09-05 10:08:00,
2015-09-05 03:13:00,47.7,45.2,29.87,SSW,210,0.0,0.0,91,0.00,,,0.00,LWC V2.00 B2112,2015-09-05 10:13:00,
2015-09-05 03:18:00,47.5,45.0,29.87,SSW,210,0.0,0.0,91,0.00,,,0.00,LWC V2.00 B2112,2015-09-05 10:18:00,
2015-09-05 03:23:00,47.2,44.7,29.87,SSW,210,0.0,0.0,91,0.00,,,0.00,LWC V2.00 B2112,2015-09-05 10:23:00,
2015-09-05 03:28:00,47.0,44.5,29.87,SSW,210,0.0,0.0,91,0.00,,,0.00,LWC V2.00 B2112,2015-09-05 10:28:00,
2015-09-05 03:33:00,47.0,44.8,29.87,SSW,210,0.0,0.0,92,0.00,,,0.00,LWC V2.00 B2112,2015-09-05 10:33:00,
2015-09-05 03:38:00,46.9,44.7,29.87,SSW,210,0.0,0.0,92,0.00,,,0.00,LWC V2.00 B2112,2015-09-05 10:38:00,
2015-09-05 03:43:00,46.7,44.5,29.87,SSW,210,0.0,0.0,92,0.00,,,0.00,LWC V2.00 B2112,2015-09-05 10:43:00,
2015-09-05 03:48:00,46.5,44.3,29.87,SSW,210,0.0,0.0,92,0.00,,,0.00,LWC V2.00 B2112,2015-09-05 10:48:00,
2015-09-05 03:53:00,46.2,44.0,29.87,SSW,210,0.0,0.0,92,0.00,,,0.00,LWC V2.00 B2112,2015-09-05 10:53:00,
2015-09-05 03:58:00,46.0,43.8,29.87,SSW,210,0.0,0.0,92,0.00,,,0.00,LWC V2.00 B2112,2015-09-05 10:58:00,
2015-09-05 04:03:00,45.9,43.7,29.87,SSW,210,0.0,0.0,92,0.00,,,0.00,LWC V2.00 B2112,2015-09-05 11:03:00,
2015-09-05 04:08:00,45.7,43.5,29.87,SSW,210,0.0,0.0,92,0.00,,,0.00,LWC V2.00 B2112,2015-09-05 11:08:00,
2015-09-05 04:18:00,45.2,43.0,29.88,SSW,210,0.0,0.0,92,0.00,,,0.00,LWC V2.00 B2112,2015-09-05 11:18:00,
2015-09-05 04:23:00,45.1,42.9,29.88,SSW,210,0.0,0.0,92,0.00,,,0.00,LWC V2.00 B2112,2015-09-05 11:23:00,
2015-09-05 04:28:00,44.9,42.7,29.88,SSW,210,0.0,0.0,92,0.00,,,0.00,LWC V2.00 B2112,2015-09-05 11:28:00,
2015-09-05 04:33:00,44.7,42.5,29.88,SSW,210,0.0,0.0,92,0.00,,,0.00,LWC V2.00 B2112,2015-09-05 11:33:00,
2015-09-05 04:38:00,44.4,42.2,29.88,SSW,210,0.0,0.0,92,0.00,,,0.00,LWC V2.00 B2112,2015-09-05 11:38:00,
2015-09-05 04:43:00,44.2,42.0,29.88,SSW,210,0.0,0.0,92,0.00,,,0.00,LWC V2.00 B2112,2015-09-05 11:43:00,
2015-09-05 04:48:00,44.0,41.8,29.88,SSW,210,0.0,0.0,92,0.00,,,0.00,LWC V2.00 B2112,2015-09-05 11:48:00,
2015-09-05 04:53:00,43.9,41.7,29.88,SSW,210,0.0,0.0,92,0.00,,,0.00,LWC V2.00 B2112,2015-09-05 11:53:00,
2015-09-05 04:58:00,43.7,41.5,29.89,SSW,210,0.0,0.0,92,0.00,,,0.00,LWC V2.00 B2112,2015-09-05 11:58:00,
2015-09-05 05:04:00,43.6,41.4,29.88,SSW,210,0.0,0.0,92,0.00,,,0.00,LWC V2.00 B2112,2015-09-05 12:04:00,
2015-09-05 05:09:00,43.5,41.3,29.88,SSW,210,0.0,0.0,92,0.00,,,0.00,LWC V2.00 B2112,2015-09-05 12:09:00,
2015-09-05 05:14:00,43.5,41.3,29.89,SSW,210,0.0,0.0,92,0.00,,,0.00,LWC V2.00 B2112,2015-09-05 12:14:00,
2015-09-05 05:24:00,43.2,41.0,29.89,SSW,210,0.0,0.0,92,0.00,,,0.00,LWC V2.00 B2112,2015-09-05 12:24:00,
2015-09-05 05:29:00,43.2,41.0,29.89,SSW,210,0.0,0.0,92,0.00,,,0.00,LWC V2.00 B2112,2015-09-05 12:29:00,
2015-09-05 05:34:00,43.2,41.0,29.89,SSW,210,0.0,0.0,92,0.00,,,0.00,LWC V2.00 B2112,2015-09-05 12:34:00,
2015-09-05 05:39:00,43.2,41.0,29.89,SSW,210,0.0,0.0,92,0.00,,,0.00,LWC V2.00 B2112,2015-09-05 12:39:00,
2015-09-05 05:44:00,43.1,40.9,29.90,SSW,210,0.0,0.0,92,0.00,,,0.00,LWC V2.00 B2112,2015-09-05 12:44:00,
2015-09-05 05:49:00,42.9,40.7,29.90,SSW,210,0.0,0.0,92,0.00,,,0.00,LWC V2.00 B2112,2015-09-05 12:49:00,
2015-09-05 05:54:00,42.9,40.7,29.90,SSW,210,0.0,0.0,92,0.00,,,0.00,LWC V2.00 B2112,2015-09-05 12:54:00,
2015-09-05 05:59:00,42.7,40.5,29.90,SSW,210,0.0,0.0,92,0.00,,,0.00,LWC V2.00 B2112,2015-09-05 12:59:00,
2015-09-05 06:04:00,42.7,40.5,29.90,SSW,210,0.0,0.0,92,0.00,,,0.00,LWC V2.00 B2112,2015-09-05 13:04:00,
2015-09-05 06:09:00,42.6,40.4,29.90,SSW,210,0.0,0.0,92,0.00,,,0.00,LWC V2.00 B2112,2015-09-05 13:09:00,
2015-09-05 06:14:00,42.5,40.3,29.90,SSW,210,0.0,0.0,92,0.00,,,0.00,LWC V2.00 B2112,2015-09-05 13:14:00,
2015-09-05 06:19:00,42.4,40.2,29.90,SSW,210,0.0,0.0,92,0.00,,,0.00,LWC V2.00 B2112,2015-09-05 13:19:00,
2015-09-05 06:24:00,42.2,40.0,29.90,SSW,210,0.0,0.0,92,0.00,,,0.00,LWC V2.00 B2112,2015-09-05 13:24:00,
2015-09-05 06:29:00,42.3,40.1,29.91,SSW,210,0.0,0.0,92,0.00,,,0.00,LWC V2.00 B2112,2015-09-05 13:29:00,
2015-09-05 06:34:00,42.2,40.0,29.91,SSW,210,0.0,0.0,92,0.00,,,0.00,LWC V2.00 B2112,2015-09-05 13:34:00,
2015-09-05 06:39:00,42.2,40.0,29.91,SSW,210,0.0,0.0,92,0.00,,,0.00,LWC V2.00 B2112,2015-09-05 13:39:00,
2015-09-05 06:44:00,42.2,40.3,29.91,SSW,210,0.0,0.0,93,0.00,,,0.00,LWC V2.00 B2112,2015-09-05 13:44:00,
2015-09-05 06:54:00,42.2,40.0,29.92,SSW,210,0.0,0.0,92,0.00,,,0.00,LWC V2.00 B2112,2015-09-05 13:54:00,
2015-09-05 06:59:00,42.3,40.4,29.92,SSW,210,0.0,0.0,93,0.00,,,0.00,LWC V2.00 B2112,2015-09-05 13:59:00,
2015-09-05 07:04:00,42.3,40.4,29.92,SSW,210,0.0,0.0,93,0.00,,,0.00,LWC V2.00 B2112,2015-09-05 14:04:00,
2015-09-05 07:09:00,42.3,40.4,29.92,SSW,210,0.0,0.0,93,0.00,,,0.00,LWC V2.00 B2112,2015-09-05 14:09:00,
2015-09-05 07:14:00,42.3,40.4,29.92,SSW,210,0.0,0.0,93,0.00,,,0.00,LWC V2.00 B2112,2015-09-05 14:14:00,
2015-09-05 07:19:00,42.6,40.7,29.92,SSW,210,0.0,0.0,93,0.00,,,0.00,LWC V2.00 B2112,2015-09-05 14:19:00,
2015-09-05 07:24:00,42.7,40.8,29.92,SSW,210,0.0,0.0,93,0.00,,,0.00,LWC V2.00 B2112,2015-09-05 14:24:00,
2015-09-05 07:29:00,42.9,41.0,29.92,SSW,210,0.0,0.0,93,0.00,,,0.00,LWC V2.00 B2112,2015-09-05 14:29:00,
2015-09-05 07:34:00,43.1,41.2,29.92,SSW,210,0.0,0.0,93,0.00,,,0.00,LWC V2.00 B2112,2015-09-05 14:34:00,
2015-09-05 07:39:00,43.5,41.6,29.93,SSW,210,0.0,0.0,93,0.00,,,0.00,LWC V2.00 B2112,2015-09-05 14:39:00,
2015-09-05 07:44:00,43.7,41.8,29.93,SSW,210,0.0,0.0,93,0.00,,,0.00,LWC V2.00 B2112,2015-09-05 14:44:00,
2015-09-05 07:49:00,44.3,42.4,29.93,SSW,210,0.0,0.0,93,0.00,,,0.00,LWC V2.00 B2112,2015-09-05 14:49:00,
2015-09-05 07:54:00,45.2,43.6,29.93,SSW,210,0.0,0.0,94,0.00,,,0.00,LWC V2.00 B2112,2015-09-05 14:54:00,
2015-09-05 07:59:00,46.0,44.4,29.93,SSW,210,0.0,0.0,94,0.00,,,0.00,LWC V2.00 B2112,2015-09-05 14:59:00,
2015-09-05 08:04:00,46.6,45.0,29.93,SSW,210,0.0,0.0,94,0.00,,,0.00,LWC V2.00 B2112,2015-09-05 15:04:00,
2015-09-05 08:09:00,47.2,45.6,29.93,SSW,210,0.0,0.0,94,0.00,,,0.00,LWC V2.00 B2112,2015-09-05 15:09:00,
2015-09-05 08:14:00,48.1,46.5,29.93,SSW,210,0.0,0.0,94,0.00,,,0.00,LWC V2.00 B2112,2015-09-05 15:14:00,
2015-09-05 08:19:00,48.9,47.2,29.93,SSW,210,0.0,0.0,94,0.00,,,0.00,LWC V2.00 B2112,2015-09-05 15:19:00,
2015-09-05 08:24:00,49.6,47.9,29.94,SSW,210,0.0,0.0,94,0.00,,,0.00,LWC V2.00 B2112,2015-09-05 15:24:00,
2015-09-05 08:34:00,51.0,49.0,29.94,SSW,210,0.0,0.0,93,0.00,,,0.00,LWC V2.00 B2112,2015-09-05 15:34:00,
2015-09-05 08:39:00,51.6,49.6,29.94,SSW,210,0.0,0.0,93,0.00,,,0.00,LWC V2.00 B2112,2015-09-05 15:39:00,
2015-09-05 08:44:00,52.1,49.8,29.94,SSW,210,0.0,0.0,92,0.00,,,0.00,LWC V2.00 B2112,2015-09-05 15:44:00,
2015-09-05 08:47:00,52.4,50.1,29.94,SSW,210,0.0,0.0,92,0.00,,,0.00,LWC V2.00 B2112,2015-09-05 15:47:00,
2015-09-05 08:49:00,52.6,50.3,29.94,SSW,210,0.0,0.0,92,0.00,,,0.00,LWC V2.00 B2112,2015-09-05 15:49:00,
2015-09-05 08:51:00,52.8,50.5,29.94,SSW,210,0.0,0.0,92,0.00,,,0.00,LWC V2.00 B2112,2015-09-05 15:51:00,
2015-09-05 08:56:00,53.5,50.9,29.94,SSE,158,0.0,1.0,91,0.00,,,0.00,LWC V2.00 B2112,2015-09-05 15:56:00,
2015-09-05 09:01:00,54.5,51.6,29.94,SSE,158,0.0,0.0,90,0.00,,,0.00,LWC V2.00 B2112,2015-09-05 16:01:00,
2015-09-05 09:06:00,55.6,52.1,29.94,SSE,156,0.0,0.0,88,0.00,,,0.00,LWC V2.00 B2112,2015-09-05 16:06:00,
2015-09-05 09:11:00,56.9,53.1,29.94,ESE,117,1.0,1.0,87,0.00,,,0.00,LWC V2.00 B2112,2015-09-05 16:11:00,
2015-09-05 09:16:00,58.5,53.7,29.94,SE,134,0.0,0.0,84,0.00,,,0.00,LWC V2.00 B2112,2015-09-05 16:16:00,
2015-09-05 09:21:00,59.6,54.1,29.94,SSE,149,0.0,0.0,82,0.00,,,0.00,LWC V2.00 B2112,2015-09-05 16:21:00,
2015-09-05 09:26:00,60.4,53.9,29.94,SSE,155,0.0,0.0,79,0.00,,,0.00,LWC V2.00 B2112,2015-09-05 16:26:00,
2015-09-05 09:31:00,60.8,54.2,29.94,SSW,203,0.0,1.0,79,0.00,,,0.00,LWC V2.00 B2112,2015-09-05 16:31:00,